Belleville, IL

4:29 AM CDT on August 18, 2017 (GMT -0500)
Scott Air Force Base-Midamerica

Weather History for KBLV - January, 2013

Change the Weather History Date:

Monday, January 14, 2013

  Actual Average Record
Temperature  
Mean Temperature 22 °F -  
Max Temperature 28 °F 37 °F 64 °F (1952)
Min Temperature 16 °F 20 °F -10 °F (1982)
Degree Days  
Heating Degree Days 43    
Moisture  
Dew Point 15 °F    
Average Humidity 79    
Maximum Humidity 96    
Minimum Humidity 59    
Precipitation  
Precipitation 0.00 in - - ()
Sea Level Pressure  
Sea Level Pressure 30.46 in    
Wind  
Wind Speed 5 mph (North)    
Max Wind Speed 10 mph    
Max Gust Speed -    
Visibility 10 miles    
Events      
Averages and records for this station are not official NWS values.
T = Trace of Precipitation, MM = Missing Value Source: NWS Daily Summary

Daily Weather History Graph

Daily Weather History Graph

Search for Another Location

Airport or City:

Trip Planner

Search our weather history database for the weather conditions in past years. The results will help you decide how hot, cold, wet, or windy it might be!

Date:

Astronomy

Jan. 14, 2013 Rise Set
Actual Time 7:15 AM CST 5:01 PM CST
Civil Twilight 6:46 AM CST 5:30 PM CST
Nautical Twilight 6:13 AM CST 6:03 PM CST
Astronomical Twilight 5:42 AM CST 6:35 PM CST
Moon 8:52 AM CST (1/14) 8:43 PM CST (1/14)
Length of Visible Light 10h 44m
Length of Day
9h 45m
Waxing Crescent, 11% of the Moon is Illuminated
Jan 14
Waxing Crescent
Jan 18
First Quarter
Jan 26
Full
Feb 3
Last Quarter
Feb 10
New

Hourly Weather History & Observations

Time (CST) Temp. Windchill Dew Point Humidity Pressure Visibility Wind Dir Wind Speed Gust Speed Precip Events Conditions
12:55 AM 18.1 °F 11.3 °F 16.7 °F 94% 30.40 in 10.0 mi WNW 4.6 mph - N/A   Clear
1:55 AM 18.3 °F 13.1 °F 17.2 °F 96% 30.41 in 10.0 mi WNW 3.5 mph - N/A   Clear
2:55 AM 16.2 °F 9.0 °F 14.2 °F 92% 30.44 in 10.0 mi NW 4.6 mph - N/A   Clear
3:55 AM 17.8 °F 5.9 °F 15.3 °F 90% 30.43 in 10.0 mi NNW 10.4 mph - N/A   Clear
4:55 AM 18.1 °F 8.9 °F 14.4 °F 85% 30.44 in 10.0 mi North 6.9 mph - N/A   Clear
5:55 AM 17.8 °F 9.6 °F 12.9 °F 81% 30.45 in 10.0 mi North 5.8 mph - N/A   Clear
6:55 AM 17.6 °F 10.7 °F 12.9 °F 82% 30.45 in 10.0 mi NNE 4.6 mph - N/A   Clear
7:55 AM 18.9 °F 10.8 °F 12.7 °F 77% 30.45 in 10.0 mi NNE 5.8 mph - N/A   Clear
8:55 AM 21.2 °F 11.7 °F 12.7 °F 70% 30.48 in 10.0 mi NE 8.1 mph - N/A   Clear
9:55 AM 22.8 °F 16.7 °F 13.8 °F 68% 30.52 in 10.0 mi Variable 4.6 mph - N/A   Mostly Cloudy
10:55 AM 23.2 °F 17.2 °F 14.0 °F 68% 30.51 in 10.0 mi North 4.6 mph - N/A   Mostly Cloudy
11:55 AM 23.2 °F 16.0 °F 13.1 °F 65% 30.49 in 10.0 mi North 5.8 mph - N/A   Mostly Cloudy
12:55 PM 23.7 °F - 13.5 °F 65% 30.51 in 10.0 mi Calm Calm - N/A   Overcast
1:55 PM 24.8 °F 19.1 °F 13.6 °F 63% 30.49 in 10.0 mi NW 4.6 mph - N/A   Overcast
2:55 PM 26.8 °F 22.8 °F 15.8 °F 63% 30.46 in 10.0 mi NNE 3.5 mph - N/A   Mostly Cloudy
3:55 PM 28.4 °F 22.2 °F 15.8 °F 59% 30.46 in 10.0 mi NNE 5.8 mph - N/A   Clear
4:55 PM 26.1 °F 17.6 °F 16.2 °F 66% 30.46 in 10.0 mi North 8.1 mph - N/A   Clear
5:55 PM 23.5 °F 15.4 °F 16.9 °F 76% 30.45 in 10.0 mi North 6.9 mph - N/A   Clear
6:55 PM 22.5 °F 14.1 °F 17.1 °F 80% 30.45 in 10.0 mi North 6.9 mph - N/A   Clear
7:55 PM 21.4 °F 13.8 °F 17.6 °F 85% 30.43 in 10.0 mi North 5.8 mph - N/A   Clear
8:55 PM 21.4 °F 13.8 °F 18.1 °F 87% 30.43 in 10.0 mi North 5.8 mph - N/A   Clear
9:55 PM 19.8 °F 11.9 °F 17.6 °F 91% 30.43 in 10.0 mi North 5.8 mph - N/A   Clear
10:55 PM 19.6 °F 14.5 °F 17.6 °F 92% 30.44 in 10.0 mi NNE 3.5 mph - N/A   Clear
11:55 PM 17.8 °F 9.6 °F 16.3 °F 94% 30.45 in 10.0 mi North 5.8 mph - N/A   Clear